| time (UTC) | temp F | wind direction | speed MPH | gust MPH | rain 1hr in | rain 24hr in | rain mn in | humidity % | barometer mb |
| 20260503230128 | 58 | 160 | 4.0 | 12.0 | 0.00 | 0.00 | 0.00 | 51 | 1008.5 |
| 20260503225626 | 58 | 180 | 5.0 | 12.0 | 0.00 | 0.00 | 0.00 | 50 | 1008.6 |
| 20260503225125 | 58 | 180 | 7.0 | 16.0 | 0.00 | 0.00 | 0.00 | 49 | 1008.6 |
| 20260503224623 | 58 | 190 | 3.0 | 12.0 | 0.00 | 0.00 | 0.00 | 49 | 1008.7 |
| 20260503224121 | 59 | 208 | 6.0 | 11.0 | 0.00 | 0.00 | 0.00 | 49 | 1008.9 |
| 20260503223619 | 59 | 177 | 4.0 | 9.0 | 0.00 | 0.00 | 0.00 | 49 | 1008.8 |
| 20260503223114 | 59 | 186 | 3.0 | 8.0 | 0.00 | 0.00 | 0.00 | 48 | 1008.8 |
| 20260503222612 | 59 | 195 | 4.0 | 7.0 | 0.00 | 0.00 | 0.00 | 48 | 1008.8 |
| 20260503222110 | 59 | 179 | 4.0 | 11.0 | 0.00 | 0.00 | 0.00 | 47 | 1008.7 |
| 20260503221608 | 60 | 200 | 4.0 | 11.0 | 0.00 | 0.00 | 0.00 | 47 | 1008.7 |
| 20260503221105 | 60 | 172 | 5.0 | 10.0 | 0.00 | 0.00 | 0.00 | 47 | 1008.7 |
| 20260503220601 | 60 | 185 | 3.0 | 12.0 | 0.00 | 0.00 | 0.00 | 47 | 1008.7 |
| 20260503220058 | 61 | 43 | 2.0 | 8.0 | 0.00 | 0.00 | 0.00 | 46 | 1008.8 |
| 20260503215555 | 61 | 180 | 4.0 | 13.0 | 0.00 | 0.00 | 0.00 | 46 | 1008.7 |
| 20260503215052 | 62 | 188 | 4.0 | 7.0 | 0.00 | 0.00 | 0.00 | 44 | 1008.7 |
| 20260503214550 | 62 | 225 | 2.0 | 10.0 | 0.00 | 0.00 | 0.00 | 43 | 1008.6 |
| 20260503214046 | 61 | 175 | 7.0 | 9.0 | 0.00 | 0.00 | 0.00 | 45 | 1008.7 |
| 20260503213545 | 61 | 191 | 6.0 | 9.0 | 0.00 | 0.00 | 0.00 | 45 | 1008.7 |
| 20260503213041 | 61 | 180 | 1.0 | 9.0 | 0.00 | 0.00 | 0.00 | 45 | 1008.8 |
| 20260503212539 | 61 | 210 | 5.0 | 14.0 | 0.00 | 0.00 | 0.00 | 45 | 1008.8 |
| 20260503212036 | 62 | 215 | 5.0 | 9.0 | 0.00 | 0.00 | 0.00 | 44 | 1008.5 |
| 20260503211533 | 61 | 185 | 4.0 | 17.0 | 0.00 | 0.00 | 0.00 | 44 | 1008.7 |
| 20260503211028 | 61 | 191 | 7.0 | 14.0 | 0.00 | 0.00 | 0.00 | 44 | 1008.6 |
| 20260503210526 | 62 | 167 | 5.0 | 15.0 | 0.00 | 0.00 | 0.00 | 43 | 1008.8 |
| 20260503210021 | 63 | 180 | 5.0 | 16.0 | 0.00 | 0.00 | 0.00 | 42 | 1008.7 |
| 20260503205518 | 62 | 233 | 3.0 | 8.0 | 0.00 | 0.00 | 0.00 | 44 | 1008.8 |
| 20260503205015 | 62 | 159 | 3.0 | 15.0 | 0.00 | 0.00 | 0.00 | 42 | 1008.8 |
| 20260503204512 | 64 | 181 | 5.0 | 10.0 | 0.00 | 0.00 | 0.00 | 41 | 1008.8 |
| 20260503204009 | 65 | 183 | 4.0 | 11.0 | 0.00 | 0.00 | 0.00 | 40 | 1008.5 |
| 20260503203506 | 64 | 240 | 2.0 | 11.0 | 0.00 | 0.00 | 0.00 | 39 | 1008.8 |
| 20260503203003 | 63 | 182 | 7.0 | 13.0 | 0.00 | 0.00 | 0.00 | 40 | 1008.9 |
| 20260503202501 | 63 | 178 | 2.0 | 20.0 | 0.00 | 0.00 | 0.00 | 41 | 1009.0 |
| 20260503201959 | 66 | 198 | 8.0 | 12.0 | 0.00 | 0.00 | 0.00 | 38 | 1008.8 |
| 20260503201456 | 65 | 205 | 4.0 | 12.0 | 0.00 | 0.00 | 0.00 | 38 | 1008.9 |
| 20260503200953 | 65 | 327 | 6.0 | 13.0 | 0.00 | 0.00 | 0.00 | 41 | 1008.9 |
| 20260503200449 | 65 | 204 | 2.0 | 9.0 | 0.00 | 0.00 | 0.00 | 40 | 1009.0 |
| 20260503195946 | 64 | 119 | 4.0 | 12.0 | 0.00 | 0.00 | 0.00 | 40 | 1009.1 |
| 20260503195444 | 64 | 199 | 14.0 | 17.0 | 0.00 | 0.00 | 0.00 | 38 | 1009.1 |
| 20260503194940 | 64 | 314 | 2.0 | 15.0 | 0.00 | 0.00 | 0.00 | 38 | 1009.3 |
| 20260503194437 | 65 | 194 | 2.0 | 15.0 | 0.00 | 0.00 | 0.00 | 38 | 1009.2 |
| 20260503193932 | 65 | 172 | 6.0 | 15.0 | 0.00 | 0.00 | 0.00 | 39 | 1009.1 |
| 20260503193428 | 64 | 212 | 8.0 | 12.0 | 0.00 | 0.00 | 0.00 | 39 | 1009.2 |
| 20260503192924 | 64 | 145 | 5.0 | 11.0 | 0.00 | 0.00 | 0.00 | 39 | 1009.5 |
| 20260503192421 | 62 | 288 | 3.0 | 9.0 | 0.00 | 0.00 | 0.00 | 39 | 1009.6 |
| 20260503191916 | 64 | 191 | 4.0 | 9.0 | 0.00 | 0.00 | 0.00 | 40 | 1009.5 |
| 20260503191414 | 65 | 157 | 5.0 | 9.0 | 0.00 | 0.00 | 0.00 | 39 | 1009.4 |
| 20260503190910 | 63 | 192 | 11.0 | 21.0 | 0.00 | 0.00 | 0.00 | 39 | 1009.6 |
| 20260503190408 | 64 | 237 | 2.0 | 14.0 | 0.00 | 0.00 | 0.00 | 39 | 1009.7 |
| 20260503185904 | 62 | 121 | 3.0 | 6.0 | 0.00 | 0.00 | 0.00 | 43 | 1009.6 |
| 20260503185401 | 62 | 187 | 5.0 | 9.0 | 0.00 | 0.00 | 0.00 | 43 | 1009.7 |
| 20260503184900 | 62 | 251 | 0.0 | 9.0 | 0.00 | 0.00 | 0.00 | 43 | 1010.2 |
| 20260503184356 | 63 | 200 | 2.0 | 10.0 | 0.00 | 0.00 | 0.00 | 42 | 1010.1 |
| 20260503183853 | 65 | 252 | 5.0 | 15.0 | 0.00 | 0.00 | 0.00 | 40 | 1010.2 |
| 20260503183350 | 65 | 239 | 2.0 | 11.0 | 0.00 | 0.00 | 0.00 | 42 | 1009.8 |
| 20260503182847 | 63 | 170 | 3.0 | 11.0 | 0.00 | 0.00 | 0.00 | 45 | 1010.3 |
| 20260503182346 | 61 | 192 | 9.0 | 21.0 | 0.00 | 0.00 | 0.00 | 44 | 1010.3 |
| 20260503181842 | 62 | 320 | 5.0 | 9.0 | 0.00 | 0.00 | 0.00 | 43 | 1010.4 |
| 20260503181340 | 64 | 193 | 5.0 | 7.0 | 0.00 | 0.00 | 0.00 | 42 | 1010.4 |
| 20260503180836 | 63 | 247 | 4.0 | 10.0 | 0.00 | 0.00 | 0.00 | 43 | 1010.4 |
| 20260503180334 | 63 | 271 | 3.0 | 10.0 | 0.00 | 0.00 | 0.00 | 44 | 1010.7 |
| 20260503175830 | 62 | 314 | 1.0 | 15.0 | 0.00 | 0.00 | 0.00 | 44 | 1010.5 |
| 20260503175328 | 62 | 170 | 10.0 | 12.0 | 0.00 | 0.00 | 0.00 | 44 | 1010.7 |
| 20260503174823 | 62 | 161 | 4.0 | 5.0 | 0.00 | 0.00 | 0.00 | 46 | 1010.9 |
| 20260503174322 | 61 | 187 | 4.0 | 8.0 | 0.00 | 0.00 | 0.00 | 44 | 1010.8 |
| 20260503173817 | 62 | 213 | 3.0 | 12.0 | 0.00 | 0.00 | 0.00 | 44 | 1010.9 |
| 20260503173314 | 62 | 211 | 5.0 | 10.0 | 0.00 | 0.00 | 0.00 | 43 | 1011.1 |
| 20260503172810 | 63 | 191 | 7.0 | 8.0 | 0.00 | 0.00 | 0.00 | 43 | 1011.0 |
| 20260503172308 | 61 | 292 | 0.0 | 7.0 | 0.00 | 0.00 | 0.00 | 44 | 1011.1 |
| 20260503171804 | 60 | 271 | 5.0 | 10.0 | 0.00 | 0.00 | 0.00 | 44 | 1011.3 |
| 20260503171301 | 59 | 217 | 3.0 | 14.0 | 0.00 | 0.00 | 0.00 | 46 | 1011.1 |
| 20260503170758 | 59 | 170 | 4.0 | 12.0 | 0.00 | 0.00 | 0.00 | 45 | 1011.5 |
| 20260503170255 | 59 | 184 | 6.0 | 13.0 | 0.00 | 0.00 | 0.00 | 45 | 1011.3 |
| 20260503160217 | 56 | 180 | 9.0 | 13.0 | 0.00 | 0.00 | 0.00 | 46 | 1012.0 |
| 20260503150647 | 53 | 177 | 3.0 | 8.0 | 0.00 | 0.00 | 0.00 | 50 | 1012.7 |
| 20260503150143 | 53 | 177 | 0.0 | 7.0 | 0.00 | 0.00 | 0.00 | 50 | 1012.8 |
| 20260503140108 | 53 | 163 | 4.0 | 11.0 | 0.00 | 0.00 | 0.00 | 49 | 1012.8 |
| 20260503131037 | 49 | 175 | 6.0 | 11.0 | 0.00 | 0.00 | 0.00 | 54 | 1012.9 |
| 20260503130534 | 48 | 182 | 3.0 | 6.0 | 0.00 | 0.00 | 0.00 | 55 | 1013.0 |
| 20260503110425 | 42 | 189 | 2.0 | 13.0 | 0.00 | 0.00 | 0.00 | 59 | 1012.8 |
| 20260503090316 | 37 | 296 | 0.0 | 4.0 | 0.00 | 0.00 | 0.00 | 61 | 1013.7 |
| 20260503081243 | 38 | 169 | 0.0 | 5.0 | 0.00 | 0.00 | 0.00 | 60 | 1014.3 |
| 20260503080738 | 38 | 161 | 2.0 | 3.0 | 0.00 | 0.00 | 0.00 | 60 | 1014.1 |
| 20260503080236 | 38 | 166 | 1.0 | 6.0 | 0.00 | 0.00 | 0.00 | 60 | 1014.2 |
| 20260503072713 | 38 | 189 | 2.0 | 3.0 | 0.00 | 0.00 | 0.00 | 60 | 1014.4 |
| 20260503072209 | 38 | 150 | 2.0 | 5.0 | 0.00 | 0.00 | 0.00 | 59 | 1014.3 |
| 20260503071706 | 38 | 201 | 3.0 | 5.0 | 0.00 | 0.00 | 0.00 | 59 | 1014.4 |
| 20260503071203 | 38 | 155 | 0.0 | 4.0 | 0.00 | 0.00 | 0.00 | 60 | 1014.3 |
| 20260503070659 | 38 | 152 | 3.0 | 3.0 | 0.00 | 0.00 | 0.00 | 59 | 1014.4 |
| 20260503070158 | 38 | 162 | 2.0 | 6.0 | 0.00 | 0.00 | 0.00 | 59 | 1014.5 |
| 20260503060122 | 39 | 137 | 2.0 | 3.0 | 0.00 | 0.00 | 0.00 | 60 | 1014.9 |
| 20260503055114 | 39 | 152 | 2.0 | 4.0 | 0.00 | 0.00 | 0.00 | 61 | 1015.0 |
| 20260503054609 | 39 | 128 | 1.0 | 3.0 | 0.00 | 0.00 | 0.00 | 60 | 1014.9 |
| 20260503054106 | 39 | 181 | 2.0 | 5.0 | 0.00 | 0.00 | 0.00 | 59 | 1015.3 |
| 20260503053604 | 39 | 200 | 0.0 | 3.0 | 0.00 | 0.00 | 0.00 | 60 | 1015.0 |
| 20260503053102 | 39 | 157 | 2.0 | 3.0 | 0.00 | 0.00 | 0.00 | 60 | 1015.1 |
| 20260503052559 | 39 | 181 | 2.0 | 6.0 | 0.00 | 0.00 | 0.00 | 60 | 1015.1 |
| 20260503052055 | 39 | 136 | 2.0 | 3.0 | 0.00 | 0.00 | 0.00 | 60 | 1015.1 |
| 20260503051550 | 39 | 122 | 1.0 | 6.0 | 0.00 | 0.00 | 0.00 | 60 | 1015.3 |
| 20260503051049 | 39 | 167 | 3.0 | 7.0 | 0.00 | 0.00 | 0.00 | 60 | 1015.2 |
| 20260503050544 | 39 | 176 | 0.0 | 5.0 | 0.00 | 0.00 | 0.00 | 60 | 1015.2 |
| 20260503050042 | 39 | 179 | 2.0 | 4.0 | 0.00 | 0.00 | 0.00 | 61 | 1015.2 |
| 20260503045539 | 40 | 148 | 2.0 | 6.0 | 0.00 | 0.00 | 0.00 | 60 | 1015.2 |
| 20260503045036 | 39 | 148 | 3.0 | 4.0 | 0.00 | 0.00 | 0.00 | 61 | 1015.4 |
| 20260503044532 | 39 | 166 | 2.0 | 6.0 | 0.00 | 0.00 | 0.00 | 61 | 1015.3 |
| 20260503044030 | 39 | 161 | 2.0 | 5.0 | 0.00 | 0.00 | 0.00 | 61 | 1015.2 |
| 20260503043526 | 39 | 165 | 2.0 | 5.0 | 0.00 | 0.00 | 0.00 | 62 | 1015.3 |
| 20260503043023 | 39 | 180 | 2.0 | 3.0 | 0.00 | 0.00 | 0.00 | 62 | 1015.1 |
| 20260503042520 | 40 | 194 | 2.0 | 5.0 | 0.00 | 0.00 | 0.00 | 62 | 1015.1 |
| 20260503042016 | 39 | 157 | 2.0 | 4.0 | 0.00 | 0.00 | 0.00 | 62 | 1015.2 |
| 20260503041513 | 40 | 192 | 2.0 | 3.0 | 0.00 | 0.00 | 0.00 | 62 | 1015.3 |
| 20260503041011 | 40 | 180 | 3.0 | 4.0 | 0.00 | 0.00 | 0.00 | 62 | 1015.5 |
| 20260503040508 | 40 | 156 | 2.0 | 4.0 | 0.00 | 0.00 | 0.00 | 62 | 1015.1 |
| 20260503040005 | 40 | 151 | 1.0 | 5.0 | 0.00 | 0.00 | 0.00 | 62 | 1015.2 |
| 20260503035502 | 40 | 145 | 1.0 | 6.0 | 0.00 | 0.00 | 0.00 | 63 | 1015.3 |
| 20260503035000 | 40 | 157 | 1.0 | 4.0 | 0.00 | 0.00 | 0.00 | 63 | 1015.4 |
| 20260503034456 | 40 | 180 | 1.0 | 3.0 | 0.00 | 0.00 | 0.00 | 63 | 1015.4 |
| 20260503033953 | 40 | 139 | 3.0 | 6.0 | 0.00 | 0.00 | 0.00 | 63 | 1015.5 |
| 20260503033450 | 40 | 118 | 0.0 | 4.0 | 0.00 | 0.00 | 0.00 | 63 | 1015.5 |
| 20260503032949 | 40 | 154 | 0.0 | 4.0 | 0.00 | 0.00 | 0.00 | 62 | 1015.5 |
| 20260503032447 | 40 | 172 | 3.0 | 4.0 | 0.00 | 0.00 | 0.00 | 62 | 1015.3 |
| 20260503031944 | 41 | 119 | 1.0 | 5.0 | 0.00 | 0.00 | 0.00 | 62 | 1015.4 |
| 20260503031442 | 41 | 134 | 1.0 | 6.0 | 0.00 | 0.00 | 0.00 | 62 | 1015.6 |
| 20260503030938 | 41 | 169 | 2.0 | 4.0 | 0.00 | 0.00 | 0.00 | 62 | 1015.5 |
| 20260503030435 | 41 | 168 | 2.0 | 4.0 | 0.00 | 0.00 | 0.00 | 62 | 1015.5 |
| 20260503025932 | 41 | 167 | 2.0 | 5.0 | 0.00 | 0.00 | 0.00 | 62 | 1015.6 |
| 20260503025428 | 41 | 168 | 2.0 | 5.0 | 0.00 | 0.00 | 0.00 | 62 | 1015.5 |
| 20260503024926 | 41 | 153 | 3.0 | 4.0 | 0.00 | 0.00 | 0.00 | 62 | 1015.6 |
| 20260503024422 | 41 | 168 | 2.0 | 4.0 | 0.00 | 0.00 | 0.00 | 62 | 1015.6 |
| 20260503023920 | 41 | 159 | 0.0 | 5.0 | 0.00 | 0.00 | 0.00 | 62 | 1015.7 |
| 20260503023417 | 41 | 170 | 0.0 | 4.0 | 0.00 | 0.00 | 0.00 | 61 | 1015.6 |
| 20260503022914 | 41 | 139 | 2.0 | 4.0 | 0.00 | 0.00 | 0.00 | 62 | 1015.8 |
| 20260503022408 | 41 | 156 | 0.0 | 5.0 | 0.00 | 0.00 | 0.00 | 60 | 1015.7 |
| 20260503021904 | 41 | 174 | 2.0 | 4.0 | 0.00 | 0.00 | 0.00 | 60 | 1015.6 |
| 20260503021401 | 41 | 146 | 3.0 | 4.0 | 0.00 | 0.00 | 0.00 | 60 | 1015.6 |
| 20260503020858 | 41 | 158 | 2.0 | 3.0 | 0.00 | 0.00 | 0.00 | 59 | 1015.7 |
| 20260503020356 | 41 | 139 | 2.0 | 4.0 | 0.00 | 0.00 | 0.00 | 60 | 1015.8 |
| 20260503015852 | 41 | 114 | 1.0 | 3.0 | 0.00 | 0.00 | 0.00 | 61 | 1015.7 |
| 20260503015349 | 41 | 105 | 0.0 | 4.0 | 0.00 | 0.00 | 0.00 | 60 | 1015.8 |
| 20260503014844 | 41 | 89 | 0.0 | 2.0 | 0.00 | 0.00 | 0.00 | 61 | 1015.5 |
| 20260503014343 | 41 | 108 | 1.0 | 3.0 | 0.00 | 0.00 | 0.00 | 61 | 1015.6 |
| 20260503013839 | 41 | 116 | 0.0 | 3.0 | 0.00 | 0.00 | 0.00 | 62 | 1015.5 |
| 20260503013331 | 41 | 104 | 2.0 | 3.0 | 0.00 | 0.00 | 0.00 | 63 | 1015.6 |
| 20260503012828 | 41 | 127 | 1.0 | 3.0 | 0.00 | 0.00 | 0.00 | 63 | 1015.5 |
| 20260503012326 | 42 | 120 | 2.0 | 3.0 | 0.00 | 0.00 | 0.00 | 61 | 1015.5 |
| 20260503011822 | 42 | 170 | 3.0 | 5.0 | 0.00 | 0.00 | 0.00 | 59 | 1015.6 |
| 20260503011319 | 42 | 124 | 2.0 | 2.0 | 0.00 | 0.00 | 0.00 | 60 | 1015.5 |
| 20260503010816 | 42 | 133 | 2.0 | 2.0 | 0.00 | 0.00 | 0.00 | 59 | 1015.5 |
| 20260503010313 | 42 | 145 | 2.0 | 3.0 | 0.00 | 0.00 | 0.00 | 58 | 1015.5 |
| 20260503005810 | 42 | 124 | 1.0 | 2.0 | 0.00 | 0.00 | 0.00 | 59 | 1015.5 |
| 20260503005308 | 42 | 120 | 1.0 | 3.0 | 0.00 | 0.00 | 0.00 | 58 | 1015.5 |
| 20260503004803 | 43 | 89 | 1.0 | 3.0 | 0.00 | 0.00 | 0.00 | 57 | 1015.3 |
| 20260503004301 | 43 | 102 | 1.0 | 2.0 | 0.00 | 0.00 | 0.00 | 56 | 1015.4 |
| 20260503003758 | 44 | 120 | 2.0 | 2.0 | 0.00 | 0.00 | 0.00 | 55 | 1015.5 |
| 20260503003255 | 44 | 131 | 2.0 | 3.0 | 0.00 | 0.00 | 0.00 | 53 | 1015.3 |
| 20260503002752 | 45 | 126 | 1.0 | 3.0 | 0.00 | 0.00 | 0.00 | 52 | 1015.3 |
| 20260503002249 | 45 | 140 | 2.0 | 3.0 | 0.00 | 0.00 | 0.00 | 51 | 1015.4 |
| 20260503001745 | 46 | 151 | 1.0 | 3.0 | 0.00 | 0.00 | 0.00 | 51 | 1015.3 |
| 20260503001241 | 46 | 142 | 2.0 | 3.0 | 0.00 | 0.00 | 0.00 | 51 | 1015.5 |
| 20260503000739 | 46 | 218 | 2.0 | 6.0 | 0.00 | 0.00 | 0.00 | 49 | 1015.5 |
| 20260503000236 | 46 | 343 | 2.0 | 6.0 | 0.00 | 0.00 | 0.00 | 49 | 1015.5 |
| 20260502235733 | 47 | 106 | 0.0 | 4.0 | 0.00 | 0.00 | 0.00 | 48 | 1015.3 |
| 20260502235231 | 47 | 158 | 2.0 | 6.0 | 0.00 | 0.00 | 0.00 | 48 | 1015.4 |
| 20260502234727 | 48 | 69 | 2.0 | 4.0 | 0.00 | 0.00 | 0.00 | 48 | 1015.4 |
| 20260502234225 | 48 | 114 | 2.0 | 8.0 | 0.00 | 0.00 | 0.00 | 46 | 1015.3 |
| 20260502233721 | 48 | 352 | 3.0 | 5.0 | 0.00 | 0.00 | 0.00 | 45 | 1015.5 |
| 20260502233218 | 48 | 316 | 3.0 | 8.0 | 0.00 | 0.00 | 0.00 | 47 | 1015.5 |
| 20260502232713 | 48 | 108 | 2.0 | 4.0 | 0.00 | 0.00 | 0.00 | 48 | 1015.6 |
| 20260502232211 | 47 | 13 | 0.0 | 3.0 | 0.00 | 0.00 | 0.00 | 48 | 1015.3 |
| 20260502231707 | 47 | 193 | 0.0 | 3.0 | 0.00 | 0.00 | 0.00 | 46 | 1015.6 |
| 20260502231205 | 48 | 40 | 2.0 | 3.0 | 0.00 | 0.00 | 0.00 | 45 | 1015.5 |
| 20260502230704 | 50 | 15 | 2.0 | 4.0 | 0.00 | 0.00 | 0.00 | 45 | 1015.6 |
| 20260502230202 | 49 | 89 | 0.0 | 3.0 | 0.00 | 0.00 | 0.00 | 46 | 1015.7 |